EW5647 Weather Reports


time (UTC)temp
F
wind
direction
speed
knots
gust
knots
rain 1hr
in
rain 24hr
in
rain mn
in
humidity
%
barometer
mb
20260504001746 55 294 0.0 0.0 0.00 0.00 0.00 50 1013.4
20260504001243 56 296 0.0 0.9 0.00 0.00 0.00 51 1013.3
20260504000740 56 296 0.0 0.9 0.00 0.00 0.00 49 1013.3
20260504000237 55 294 0.9 0.9 0.00 0.00 0.00 52 1013.4
20260503235735 56 294 0.9 0.9 0.00 0.00 0.00 50 1013.5
20260503235232 56 302 0.0 0.9 0.00 0.00 0.00 48 1013.2
20260503234730 56 284 0.9 1.7 0.00 0.00 0.00 48 1013.6
20260503234228 57 292 1.7 1.7 0.00 0.00 0.00 48 1013.5
20260503233724 57 284 0.9 0.9 0.00 0.00 0.00 48 1013.6
20260503233219 57 290 1.7 2.6 0.00 0.00 0.00 48 1013.4
20260503232717 57 284 0.9 1.7 0.00 0.00 0.00 48 1013.6
20260503232214 57 294 0.9 0.9 0.00 0.00 0.00 48 1013.4
20260503231713 57 294 0.9 0.9 0.00 0.00 0.00 48 1013.4
20260503231208 57 294 1.7 1.7 0.00 0.00 0.00 47 1013.3
20260503230705 57 292 0.9 1.7 0.00 0.00 0.00 48 1013.4
20260503230203 57 299 0.9 1.7 0.00 0.00 0.00 47 1013.4
20260503225659 57 299 0.9 0.9 0.00 0.00 0.00 49 1013.5
20260503225154 57 319 0.9 0.9 0.00 0.00 0.00 47 1013.4
20260503224652 58 294 0.9 0.9 0.00 0.00 0.00 47 1013.5
20260503224149 58 296 0.0 0.9 0.00 0.00 0.00 45 1013.4
20260503223647 58 294 0.0 0.9 0.00 0.00 0.00 46 1013.5
20260503223143 58 302 0.9 0.9 0.00 0.00 0.00 45 1013.5
20260503222640 58 296 2.6 2.6 0.00 0.00 0.00 43 1013.4
20260503222138 58 300 0.9 1.7 0.00 0.00 0.00 44 1013.5
20260503221636 58 301 2.6 2.6 0.00 0.00 0.00 45 1013.6
20260503221133 58 296 0.9 0.9 0.00 0.00 0.00 43 1013.3
20260503220630 59 296 3.5 4.3 0.00 0.00 0.00 44 1013.4
20260503220126 59 294 0.9 0.9 0.00 0.00 0.00 43 1013.3
20260503215624 59 301 0.0 0.9 0.00 0.00 0.00 43 1013.3
20260503215120 59 302 1.7 1.7 0.00 0.00 0.00 44 1013.3
20260503214619 59 302 0.0 0.9 0.00 0.00 0.00 44 1013.5
20260503214115 60 299 2.6 2.6 0.00 0.00 0.00 43 1013.4
20260503213614 59 296 1.7 2.6 0.00 0.00 0.00 42 1013.5
20260503213110 59 294 1.7 1.7 0.00 0.00 0.00 46 1013.5
20260503212608 59 298 1.7 1.7 0.00 0.00 0.00 43 1013.5
20260503212105 60 294 3.5 4.3 0.00 0.00 0.00 44 1013.4
20260503211603 59 296 4.3 6.1 0.00 0.00 0.00 40 1013.3
20260503211057 59 296 0.9 2.6 0.00 0.00 0.00 42 1013.4
20260503210554 59 294 2.6 2.6 0.00 0.00 0.00 42 1013.3
20260503210050 59 294 0.9 0.9 0.00 0.00 0.00 45 1013.0
20260503205547 60 294 0.9 1.7 0.00 0.00 0.00 41 1013.2
20260503205043 60 302 1.7 4.3 0.00 0.00 0.00 43 1013.2
20260503204540 59 296 0.9 1.7 0.00 0.00 0.00 41 1013.3
20260503204037 59 295 0.9 0.9 0.00 0.00 0.00 43 1013.5
20260503203535 59 319 0.9 0.9 0.00 0.00 0.00 44 1013.4
20260503203032 58 299 0.9 0.9 0.00 0.00 0.00 46 1013.5
20260503202530 59 319 1.7 2.6 0.00 0.00 0.00 41 1013.6
20260503202027 59 303 0.9 1.7 0.00 0.00 0.00 42 1013.5
20260503201526 59 294 0.0 0.9 0.00 0.00 0.00 42 1013.5
20260503201022 59 294 0.9 0.9 0.00 0.00 0.00 44 1013.9
20260503200518 60 296 0.0 0.9 0.00 0.00 0.00 44 1013.8
20260503200015 59 302 0.9 0.9 0.00 0.00 0.00 42 1013.9
20260503195512 59 293 0.9 0.9 0.00 0.00 0.00 45 1013.9
20260503195009 59 293 0.9 1.7 0.00 0.00 0.00 44 1014.1
20260503194507 59 296 0.9 0.9 0.00 0.00 0.00 46 1013.9
20260503194006 60 296 0.9 0.9 0.00 0.00 0.00 43 1014.0
20260503193503 59 294 1.7 1.7 0.00 0.00 0.00 46 1014.3
20260503192958 58 303 1.7 1.7 0.00 0.00 0.00 45 1014.3
20260503192454 58 296 0.9 0.9 0.00 0.00 0.00 43 1014.4
20260503191950 58 303 0.9 0.9 0.00 0.00 0.00 47 1014.6
20260503191448 59 299 0.9 1.7 0.00 0.00 0.00 45 1014.3
20260503190944 59 302 0.0 0.9 0.00 0.00 0.00 45 1014.6
20260503190442 58 293 0.0 0.9 0.00 0.00 0.00 47 1014.6
20260503185938 58 321 0.9 1.7 0.00 0.00 0.00 48 1014.8
20260503185435 59 293 0.9 1.7 0.00 0.00 0.00 46 1015.0
20260503184934 59 293 1.7 2.6 0.00 0.00 0.00 42 1014.9
20260503184431 58 294 1.7 2.6 0.00 0.00 0.00 44 1014.9
20260503183927 60 301 0.0 0.9 0.00 0.00 0.00 45 1015.1
20260503183424 59 302 0.9 0.9 0.00 0.00 0.00 45 1015.0
20260503182921 59 294 1.7 1.7 0.00 0.00 0.00 46 1015.1
20260503182420 60 294 1.7 1.7 0.00 0.00 0.00 44 1015.1
20260503181917 59 323 1.7 1.7 0.00 0.00 0.00 45 1015.1
20260503181414 59 294 0.9 0.9 0.00 0.00 0.00 45 1015.0
20260503180910 58 294 0.9 1.7 0.00 0.00 0.00 44 1015.1
20260503180409 58 294 1.7 2.6 0.00 0.00 0.00 45 1015.3
20260503175904 58 294 0.9 0.9 0.00 0.00 0.00 43 1015.2
20260503175403 57 294 0.9 1.7 0.00 0.00 0.00 45 1015.3
20260503174858 58 294 0.9 1.7 0.00 0.00 0.00 46 1015.5
20260503174356 57 294 0.0 0.0 0.00 0.00 0.00 46 1015.7
20260503173851 57 294 2.6 2.6 0.00 0.00 0.00 46 1015.4
20260503173348 57 294 0.9 0.9 0.00 0.00 0.00 45 1015.7
20260503172844 58 299 3.5 4.3 0.00 0.00 0.00 43 1015.8
20260503172342 57 294 0.9 1.7 0.00 0.00 0.00 44 1015.7
20260503171837 58 296 0.9 0.9 0.00 0.00 0.00 44 1015.8
20260503171335 59 296 0.9 0.9 0.00 0.00 0.00 39 1015.7
20260503170832 59 302 2.6 2.6 0.00 0.00 0.00 45 1015.9
20260503170328 58 303 2.6 2.6 0.00 0.00 0.00 46 1015.7
20260503150721 54 319 0.9 0.9 0.00 0.00 0.00 47 1017.0
20260503150217 53 299 0.9 0.9 0.00 0.00 0.00 51 1017.1
20260503140141 51 296 1.7 1.7 0.00 0.00 0.00 56 1017.1
20260503131111 47 307 0.0 0.0 0.00 0.00 0.00 69 1017.5
20260503130609 45 304 0.0 0.0 0.00 0.00 0.00 73 1017.6
20260503130106 44 315 0.9 0.9 0.00 0.00 0.00 75 1017.6
20260503110458 34 316 0.0 0.0 0.00 0.00 0.00 97 1016.8
20260503090344 32 318 0.0 0.0 0.00 0.00 0.00 95 1016.7
20260503081311 33 318 0.0 0.0 0.00 0.00 0.00 93 1016.7
20260503080808 33 318 0.0 0.0 0.00 0.00 0.00 93 1016.7
20260503080305 34 318 0.0 0.0 0.00 0.00 0.00 93 1016.7
20260503072741 34 324 0.0 0.9 0.00 0.00 0.00 93 1016.6
20260503072238 34 314 0.0 0.9 0.00 0.00 0.00 93 1016.4
20260503071734 34 317 0.0 0.0 0.00 0.00 0.00 93 1016.5
20260503071231 34 317 0.0 0.0 0.00 0.00 0.00 93 1016.5
20260503070728 34 317 0.0 0.0 0.00 0.00 0.00 93 1016.4
20260503070226 34 317 0.0 0.0 0.00 0.00 0.00 94 1016.4
20260503060151 35 328 0.0 0.0 0.00 0.00 0.00 89 1016.9
20260503054638 36 328 0.0 0.0 0.00 0.00 0.00 88 1016.7
20260503054135 36 328 0.0 0.0 0.00 0.00 0.00 87 1017.0
20260503053633 36 328 0.0 0.0 0.00 0.00 0.00 87 1016.8
20260503053132 37 328 0.0 0.0 0.00 0.00 0.00 86 1016.8
20260503052627 37 328 0.0 0.0 0.00 0.00 0.00 86 1017.0
20260503052124 37 328 0.0 0.0 0.00 0.00 0.00 87 1017.0
20260503051619 37 328 0.0 0.0 0.00 0.00 0.00 87 1016.9
20260503051118 37 328 0.0 0.0 0.00 0.00 0.00 87 1017.1
20260503050614 37 328 0.0 0.0 0.00 0.00 0.00 87 1016.9
20260503050110 37 328 0.0 0.0 0.00 0.00 0.00 87 1017.0
20260503045608 37 328 0.0 0.0 0.00 0.00 0.00 87 1017.2
20260503045105 37 328 0.0 0.0 0.00 0.00 0.00 87 1017.4
20260503044601 37 328 0.0 0.0 0.00 0.00 0.00 86 1017.1
20260503044059 37 328 0.0 0.0 0.00 0.00 0.00 86 1017.2
20260503043555 37 328 0.0 0.0 0.00 0.00 0.00 86 1017.1
20260503043052 37 328 0.0 0.0 0.00 0.00 0.00 86 1016.8
20260503042549 37 328 0.0 0.0 0.00 0.00 0.00 86 1017.2
20260503042045 37 328 0.0 0.0 0.00 0.00 0.00 86 1017.0
20260503041542 37 328 0.0 0.0 0.00 0.00 0.00 86 1017.2
20260503041040 37 328 0.0 0.0 0.00 0.00 0.00 86 1017.2
20260503040537 37 328 0.0 0.0 0.00 0.00 0.00 86 1017.1
20260503040034 37 328 0.0 0.0 0.00 0.04 0.04 87 1017.3
20260503035531 38 328 0.0 0.0 0.00 0.04 0.04 87 1017.2
20260503035029 38 328 0.0 0.0 0.00 0.04 0.04 86 1017.2
20260503034525 38 328 0.0 0.0 0.00 0.04 0.04 86 1017.4
20260503034022 38 328 0.0 0.0 0.00 0.04 0.04 86 1017.3
20260503033520 37 318 0.0 0.0 0.00 0.04 0.04 86 1017.4
20260503033018 38 318 0.0 0.0 0.00 0.04 0.04 86 1017.1
20260503032516 38 318 0.0 0.0 0.00 0.04 0.04 85 1017.1
20260503032014 38 318 0.0 0.0 0.00 0.04 0.04 85 1017.6
20260503031511 38 318 0.0 0.0 0.00 0.04 0.04 85 1017.5
20260503031008 38 318 0.0 0.0 0.00 0.04 0.04 86 1017.4
20260503030504 38 318 0.0 0.0 0.00 0.04 0.04 86 1017.3
20260503030001 38 318 0.0 0.0 0.00 0.04 0.04 86 1017.6
20260503025458 38 318 0.0 0.0 0.00 0.04 0.04 86 1017.5
20260503024956 38 318 0.0 0.0 0.00 0.04 0.04 85 1017.5
20260503024451 38 318 0.0 0.0 0.00 0.04 0.04 85 1017.6
20260503023949 38 318 0.0 0.0 0.00 0.04 0.04 85 1017.7
20260503023446 38 318 0.0 0.0 0.00 0.04 0.04 85 1017.6
20260503022943 38 318 0.0 0.0 0.00 0.04 0.04 85 1017.6
20260503022437 38 318 0.0 0.0 0.00 0.04 0.04 85 1017.7
20260503021934 38 318 0.0 0.0 0.00 0.04 0.04 85 1017.6
20260503021430 38 318 0.0 0.0 0.00 0.04 0.04 84 1017.8
20260503020928 38 318 0.0 0.0 0.00 0.04 0.04 83 1017.6
20260503020425 38 318 0.0 0.0 0.00 0.04 0.04 83 1017.7
20260503015922 38 318 0.0 0.0 0.00 0.04 0.04 83 1017.7
20260503015418 38 318 0.0 0.0 0.00 0.04 0.04 82 1017.5
20260503014914 38 318 0.0 0.0 0.00 0.04 0.04 81 1017.5
20260503014412 38 318 0.0 0.0 0.00 0.04 0.04 81 1017.5
20260503013910 39 318 0.0 0.0 0.00 0.04 0.04 81 1017.6
20260503013406 39 318 0.0 0.0 0.00 0.04 0.04 81 1017.4
20260503012903 39 318 0.0 0.0 0.00 0.04 0.04 81 1017.3
20260503012401 39 318 0.0 0.0 0.00 0.04 0.04 79 1017.3
20260503011857 39 318 0.0 0.0 0.00 0.04 0.04 78 1017.4
20260503011355 39 318 0.0 0.0 0.00 0.04 0.04 78 1017.6
20260503010851 39 318 0.0 0.0 0.00 0.04 0.04 78 1017.6
20260503010348 39 318 0.0 0.0 0.00 0.04 0.04 78 1017.4
20260503005845 39 318 0.0 0.0 0.00 0.04 0.04 77 1017.4
20260503005343 39 318 0.0 0.0 0.00 0.04 0.04 77 1017.4
20260503004838 39 318 0.0 0.0 0.00 0.04 0.04 78 1017.4
20260503004336 40 318 0.0 0.0 0.00 0.04 0.04 78 1017.2
20260503003833 40 318 0.0 0.0 0.00 0.04 0.04 76 1017.7
20260503003330 40 318 0.0 0.0 0.00 0.04 0.04 75 1017.1
20260503002827 40 318 0.0 0.0 0.00 0.04 0.04 76 1017.4
20260503002324 40 318 0.0 0.0 0.00 0.04 0.04 74 1017.4